This is the latest recevied weather packets stored in our database for station/object KF0ZH. If no packets are shown the sender has not sent any weather packets the latest 10 day(s).
| Time | Temp. | Humidity | Pressure | Rain* | Wind** | Luminosity | Snow |
|---|---|---|---|---|---|---|---|
| 1777337761 | 8.89° C | 99% | 1000 hPa | 0 mm | 1.79 m/s, 323° | - | - |
| 1777337465 | 8.33° C | 99% | 999.9 hPa | 0 mm | 3.13 m/s, 296° | - | - |
| 1777336861 | 8.89° C | 99% | 999.8 hPa | 0 mm | 2.68 m/s, 293° | - | - |
| 1777336627 | 8.33° C | 99% | 999.6 hPa | 0 mm | 4.92 m/s, 313° | - | - |
| 1777336562 | 8.33° C | 99% | 999.6 hPa | 0 mm | 4.92 m/s, 313° | - | - |
| 1777336406 | 8.33° C | 99% | 999.6 hPa | 0 mm | 3.58 m/s, 305° | - | - |
| 1777336263 | 8.33° C | 99% | 999.6 hPa | 0 mm | 3.58 m/s, 305° | - | - |
| 1777336003 | 8.33° C | 99% | 999.6 hPa | 0 mm | 1.34 m/s, 319° | - | - |
| 1777335961 | 8.33° C | 99% | 999.6 hPa | 0 mm | 1.34 m/s, 319° | - | - |
| 1777335661 | 8.33° C | 99% | 999.4 hPa | 0 mm | 2.68 m/s, 329° | - | - |
| 1777335361 | 8.33° C | 99% | 999.5 hPa | 0 mm | 2.68 m/s, 278° | - | - |
| 1777334761 | 8.33° C | 99% | 999.3 hPa | 2.54 mm | 2.68 m/s, 319° | - | - |
| 1777334502 | 8.33° C | 99% | 999.1 hPa | 2.54 mm | 2.24 m/s, 271° | - | - |
| 1777334462 | 8.33° C | 99% | 999.1 hPa | 2.54 mm | 2.24 m/s, 271° | - | - |
| 1777333984 | 8.33° C | 99% | 998.8 hPa | 2.54 mm | 3.13 m/s, 313° | - | - |
| 1777333862 | 8.33° C | 99% | 998.8 hPa | 2.54 mm | 3.13 m/s, 313° | - | - |
| 1777333620 | 8.33° C | 99% | 998.7 hPa | 2.54 mm | 1.34 m/s, 302° | - | - |
| 1777333562 | 8.33° C | 99% | 998.7 hPa | 2.54 mm | 1.34 m/s, 302° | - | - |
| 1777333264 | 8.89° C | 99% | 998.6 hPa | 2.54 mm | 4.02 m/s, 315° | - | - |
| 1777332962 | 8.89° C | 99% | 998.5 hPa | 2.54 mm | 5.81 m/s, 268° | - | - |
| 1777332702 | 8.89° C | 99% | 998.4 hPa | 2.54 mm | 1.34 m/s, 323° | - | - |
| 1777332662 | 8.89° C | 99% | 998.4 hPa | 2.54 mm | 1.34 m/s, 323° | - | - |
| 1777332362 | 8.89° C | 99% | 998.3 hPa | 2.54 mm | 3.58 m/s, 350° | - | - |
| 1777332062 | 8.89° C | 99% | 998.1 hPa | 2.54 mm | 1.79 m/s, 300° | - | - |
| 1777331672 | 8.89° C | 99% | 998 hPa | 0 mm | 5.81 m/s, 261° | - | - |
* Rain latest hour (hover to see other rain measurements)
** Current wind speed in m/s (hover to see current wind gust speed)